South Haven, MI

7:28 AM EDT on May 25, 2018 (GMT -0400)
South Haven

Weather History for KLWA - October, 2013

Change the Weather History Date:

Monday, October 7, 2013

  Actual Average (KBEH) Record (KBEH)
Temperature  
Mean Temperature 53 °F -  
Max Temperature 61 °F 65 °F 85 °F (1963)
Min Temperature 45 °F 42 °F 26 °F (1988)
Degree Days  
Heating Degree Days 12    
Growing Degree Days 3 (Base 50)    
Moisture  
Dew Point 45 °F    
Average Humidity 73    
Maximum Humidity 96    
Minimum Humidity 52    
Precipitation  
Precipitation 0.00 in - - ()
Sea Level Pressure  
Sea Level Pressure 29.87 in    
Wind  
Wind Speed 10 mph (West)    
Max Wind Speed 18 mph    
Max Gust Speed 26 mph    
Visibility 10 miles    
Events Rain    
Averages and records for this station are not official NWS values.
T = Trace of Precipitation, MM = Missing Value Source: NWS Daily Summary

Daily Weather History Graph

Daily Weather History Graph

Search for Another Location

Airport or City:

Astronomy

Oct. 07, 2013 Rise Set
Actual Time 7:49 AM EDT 7:15 PM EDT
Civil Twilight 7:20 AM EDT 7:43 PM EDT
Nautical Twilight 6:48 AM EDT 8:16 PM EDT
Astronomical Twilight 6:15 AM EDT 8:48 PM EDT
Moon 10:42 AM EDT (10/7) 8:56 PM EDT (10/7)
Length of Visible Light 12h 22m
Length of Day
11h 26m
Waxing Crescent, 8% of the Moon is Illuminated
Oct 7
Waxing Crescent
Oct 11
First Quarter
Oct 18
Full
Oct 26
Last Quarter
Nov 3
New

Hourly Weather History & Observations

Time (EDT) Temp. Dew Point Humidity Pressure Visibility Wind Dir Wind Speed Gust Speed Precip Events Conditions
12:15 AM 52.3 °F 39.7 °F 62% 29.74 in 10.0 mi WSW 8.1 mph - N/A   Mostly Cloudy
12:35 AM 52.7 °F 40.6 °F 64% 29.73 in 10.0 mi WSW 10.4 mph 18.4 mph N/A   Mostly Cloudy
12:55 AM 52.7 °F 41.2 °F 65% 29.73 in 10.0 mi WSW 12.7 mph 16.1 mph N/A   Overcast
1:15 AM 52.3 °F 41.5 °F 67% 29.72 in 10.0 mi West 9.2 mph 17.3 mph N/A   Overcast
1:35 AM 52.2 °F 41.5 °F 67% 29.72 in 10.0 mi West 9.2 mph - N/A   Overcast
1:55 AM 52.2 °F 40.8 °F 65% 29.72 in 10.0 mi West 12.7 mph 18.4 mph N/A   Overcast
2:15 AM 52.0 °F 39.4 °F 62% 29.72 in 10.0 mi WSW 13.8 mph 18.4 mph N/A   Overcast
2:35 AM 51.4 °F 39.9 °F 65% 29.73 in 10.0 mi West 12.7 mph 18.4 mph N/A   Mostly Cloudy
2:55 AM 51.8 °F 40.3 °F 65% 29.73 in 10.0 mi West 11.5 mph 18.4 mph N/A   Mostly Cloudy
3:15 AM 51.4 °F 40.3 °F 66% 29.73 in 10.0 mi West 10.4 mph 19.6 mph N/A   Mostly Cloudy
3:35 AM 51.4 °F 40.1 °F 65% 29.72 in 10.0 mi WSW 13.8 mph 20.7 mph N/A   Mostly Cloudy
3:55 AM 51.3 °F 40.3 °F 66% 29.73 in 10.0 mi WSW 13.8 mph 25.3 mph N/A   Overcast
4:15 AM 51.3 °F 39.0 °F 63% 29.73 in 10.0 mi West 15.0 mph 21.9 mph N/A   Overcast
4:35 AM 50.9 °F 39.6 °F 65% 29.72 in 10.0 mi WSW 11.5 mph 18.4 mph N/A   Mostly Cloudy
4:55 AM 51.3 °F 39.6 °F 64% 29.72 in 10.0 mi WSW 8.1 mph - N/A   Mostly Cloudy
5:14 AM 51.1 °F 40.5 °F 67% 29.73 in 10.0 mi WSW 11.5 mph 17.3 mph N/A   Mostly Cloudy
5:35 AM 51.1 °F 40.1 °F 66% 29.73 in 10.0 mi WSW 9.2 mph 18.4 mph N/A   Mostly Cloudy
5:55 AM 51.3 °F 41.7 °F 70% 29.73 in 10.0 mi WSW 8.1 mph - N/A   Mostly Cloudy
6:14 AM 51.8 °F 41.9 °F 69% 29.73 in 10.0 mi WSW 13.8 mph 18.4 mph N/A   Overcast
6:35 AM 49.3 °F 45.9 °F 88% 29.74 in 10.0 mi WSW 11.5 mph 24.2 mph N/A   Drizzle
6:55 AM 49.1 °F 46.8 °F 92% 29.73 in 7.0 mi WSW 8.1 mph - N/A Rain Light Rain
7:15 AM 51.3 °F 46.9 °F 85% 29.74 in 10.0 mi West 13.8 mph 25.3 mph N/A   Overcast
7:35 AM 51.8 °F 46.0 °F 81% 29.75 in 10.0 mi West 11.5 mph 17.3 mph N/A   Overcast
7:54 AM 52.0 °F 45.7 °F 79% 29.76 in 10.0 mi West 10.4 mph 18.4 mph N/A   Overcast
8:15 AM 52.7 °F 45.9 °F 78% 29.76 in 10.0 mi WSW 11.5 mph 19.6 mph N/A   Overcast
8:35 AM 53.1 °F 44.6 °F 73% 29.77 in 10.0 mi West 13.8 mph 25.3 mph N/A   Overcast
8:54 AM 53.6 °F 45.1 °F 73% 29.78 in 10.0 mi West 15.0 mph 23.0 mph N/A   Overcast
9:15 AM 53.6 °F 45.1 °F 73% 29.79 in 10.0 mi West 13.8 mph 20.7 mph N/A   Overcast
9:35 AM 53.8 °F 45.9 °F 75% 29.80 in 10.0 mi West 11.5 mph 21.9 mph N/A   Overcast
9:55 AM 54.5 °F 47.8 °F 78% 29.80 in 10.0 mi WSW 10.4 mph - N/A   Overcast
10:15 AM 54.0 °F 48.7 °F 82% 29.80 in 10.0 mi West 12.7 mph 20.7 mph N/A   Overcast
10:34 AM 53.8 °F 48.4 °F 82% 29.81 in 10.0 mi West 10.4 mph 23.0 mph N/A   Overcast
10:55 AM 53.6 °F 48.4 °F 82% 29.82 in 10.0 mi West 13.8 mph 19.6 mph N/A   Overcast
11:15 AM 53.6 °F 49.6 °F 86% 29.82 in 5.0 mi West 9.2 mph 17.3 mph N/A   Light Drizzle
11:34 AM 54.3 °F 50.0 °F 85% 29.83 in 10.0 mi WNW 13.8 mph 19.6 mph N/A Rain Light Rain
11:55 AM 54.3 °F 51.4 °F 90% 29.84 in 5.0 mi WNW 17.3 mph 26.5 mph N/A Rain Light Rain
12:14 PM 55.6 °F 50.2 °F 82% 29.85 in 10.0 mi West 13.8 mph 25.3 mph N/A   Overcast
12:35 PM 56.5 °F 49.6 °F 78% 29.87 in 10.0 mi WNW 12.7 mph 23.0 mph N/A   Overcast
12:55 PM 56.3 °F 47.7 °F 73% 29.88 in 10.0 mi WNW 13.8 mph 21.9 mph N/A   Mostly Cloudy
1:14 PM 58.1 °F 46.2 °F 65% 29.89 in 10.0 mi WNW 18.4 mph 24.2 mph N/A   Scattered Clouds
1:35 PM 58.8 °F 46.6 °F 64% 29.90 in 10.0 mi NW 16.1 mph 23.0 mph N/A   Scattered Clouds
1:55 PM 59.4 °F 46.9 °F 63% 29.91 in 10.0 mi WNW 13.8 mph 19.6 mph N/A   Mostly Cloudy
2:14 PM 58.3 °F 45.7 °F 63% 29.92 in 10.0 mi NW 12.7 mph 21.9 mph N/A   Mostly Cloudy
2:35 PM 57.9 °F 45.9 °F 64% 29.93 in 10.0 mi WNW 13.8 mph 19.6 mph N/A   Mostly Cloudy
2:55 PM 59.4 °F 45.5 °F 60% 29.93 in 10.0 mi NW 8.1 mph 23.0 mph N/A   Mostly Cloudy
3:15 PM 59.2 °F 47.1 °F 64% 29.94 in 10.0 mi WNW 11.5 mph 17.3 mph N/A   Mostly Cloudy
3:35 PM 61.0 °F 46.2 °F 58% 29.95 in 10.0 mi NW 10.4 mph 18.4 mph N/A   Mostly Cloudy
3:55 PM 60.1 °F 45.7 °F 59% 29.96 in 10.0 mi WNW 10.4 mph 18.4 mph N/A   Mostly Cloudy
4:15 PM 60.4 °F 46.9 °F 61% 29.96 in 10.0 mi WNW 9.2 mph 17.3 mph N/A   Mostly Cloudy
4:35 PM 61.2 °F 45.9 °F 57% 29.97 in 10.0 mi WNW 10.4 mph 16.1 mph N/A   Scattered Clouds
4:55 PM 60.8 °F 45.0 °F 56% 29.97 in 10.0 mi West 9.2 mph - N/A   Scattered Clouds
5:15 PM 61.3 °F 45.1 °F 55% 29.97 in 10.0 mi West 9.2 mph - N/A   Scattered Clouds
5:35 PM 61.2 °F 45.3 °F 56% 29.98 in 10.0 mi WNW 9.2 mph - N/A   Scattered Clouds
5:55 PM 60.6 °F 45.1 °F 57% 29.99 in 10.0 mi WNW 3.5 mph - N/A   Clear
6:15 PM 60.3 °F 43.7 °F 54% 29.99 in 10.0 mi WNW 5.8 mph - N/A   Clear
6:35 PM 59.9 °F 42.4 °F 52% 30.00 in 10.0 mi NW 4.6 mph - N/A   Clear
6:54 PM 59.0 °F 41.4 °F 52% 30.01 in 10.0 mi WNW 4.6 mph - N/A   Clear
7:15 PM 57.2 °F 42.8 °F 59% 30.01 in 10.0 mi Calm Calm - N/A   Clear
7:35 PM 54.9 °F 44.1 °F 67% 30.02 in 10.0 mi Calm Calm - N/A   Clear
7:54 PM 49.5 °F 45.7 °F 87% 30.02 in 10.0 mi Calm Calm - N/A   Clear
8:15 PM 48.6 °F 45.9 °F 90% 30.03 in 10.0 mi Calm Calm - N/A   Clear
8:35 PM 47.5 °F 45.5 °F 93% 30.04 in 10.0 mi Calm Calm - N/A   Clear
8:55 PM 47.1 °F 45.5 °F 94% 30.04 in 10.0 mi Calm Calm - N/A   Clear
9:15 PM 46.2 °F 44.8 °F 95% 30.05 in 10.0 mi Calm Calm - N/A   Clear
9:34 PM 46.0 °F 45.0 °F 96% 30.06 in 10.0 mi Calm Calm - N/A   Clear
9:55 PM 45.7 °F 43.9 °F 93% 30.07 in 10.0 mi Calm Calm - N/A   Clear
10:15 PM 45.5 °F 44.1 °F 95% 30.07 in 10.0 mi Calm Calm - N/A   Clear
10:34 PM 46.2 °F 45.0 °F 95% 30.08 in 10.0 mi Calm Calm - N/A   Clear
10:55 PM 48.0 °F 45.1 °F 90% 30.09 in 10.0 mi Calm Calm - N/A   Clear
11:15 PM 47.8 °F 45.1 °F 90% 30.10 in 10.0 mi Calm Calm - N/A   Clear
11:35 PM 48.6 °F 45.5 °F 89% 30.10 in 10.0 mi Calm Calm - N/A   Clear
11:55 PM 47.5 °F 44.2 °F 89% 30.10 in 10.0 mi Calm Calm - N/A   Clear